Weather History for Westhampton Beach, NY

Change the Weather History Date:

Wednesday, November 7, 2012

  Actual Average Record
Temperature  
Mean Temperature 38 °F -  
Max Temperature 42 °F 52 °F 63 °F (2001)
Min Temperature 35 °F 33 °F 19 °F (2002)
Degree Days  
Heating Degree Days 26    
Moisture  
Dew Point 32 °F    
Average Humidity 78    
Maximum Humidity 93    
Minimum Humidity 55    
Precipitation  
Precipitation 0.68 in - - ()
Sea Level Pressure  
Sea Level Pressure 29.80 in    
Wind  
Wind Speed 21 mph (NNE)    
Max Wind Speed 30 mph    
Max Gust Speed 46 mph    
Visibility 8 miles    
Events Rain , Snow    
Averages and records for this station are not official NWS values.
T = Trace of Precipitation, MM = Missing Value Source: NWS Daily Summary

Daily Weather History Graph

Daily Weather History Graph

Search for Another Location

Airport:

Trip Planner

Search our weather history database for the weather conditions in past years. The results will help you decide how hot, cold, wet, or windy it might be!

Date:

Astronomy

Nov. 07, 2012 Rise Set
Actual Time 6:28 AM EST 4:39 PM EST
Civil Twilight 5:59 AM EST 5:08 PM EST
Nautical Twilight 5:26 AM EST 5:40 PM EST
Astronomical Twilight 4:54 AM EST 6:12 PM EST
Moon No Moon Rise 12:49 PM EST (11/7)
Length of Visible Light 11h 08m
Length of Day
10h 10m
Last Quarter, 43% of the Moon is Illuminated
Nov 7
Last Quarter
Nov 13
New
Nov 20
First Quarter
Nov 28
Full
Dec 6
Last Quarter

Hourly Weather History & Observations

Time (EST) Temp. Windchill Dew Point Humidity Pressure Visibility Wind Dir Wind Speed Gust Speed Precip Events Conditions
12:53 AM 42.1 °F 35.2 °F 27.0 °F 55% 30.06 in 10.0 mi NE 12.7 mph 19.6 mph N/A   Clear
1:53 AM 41.0 °F 32.5 °F 30.9 °F 67% 30.05 in 10.0 mi NNE 17.3 mph 21.9 mph N/A   Mostly Cloudy
2:53 AM 41.0 °F 32.5 °F 32.0 °F 70% 29.99 in 10.0 mi NNE 17.3 mph 26.5 mph N/A   Mostly Cloudy
3:53 AM 42.1 °F 33.3 °F 30.9 °F 65% 29.98 in 10.0 mi NE 19.6 mph 32.2 mph N/A   Overcast
4:53 AM 42.1 °F 32.6 °F 30.9 °F 65% 29.94 in 10.0 mi NNE 23.0 mph 32.2 mph N/A   Overcast
5:15 AM 42.8 °F 33.5 °F 30.2 °F 61% 29.94 in 10.0 mi NNE 23.0 mph 32.2 mph N/A   Overcast
5:53 AM 42.1 °F 33.3 °F 30.9 °F 65% 29.94 in 10.0 mi NNE 19.6 mph 31.1 mph N/A   Overcast
6:25 AM 42.8 °F 33.8 °F 30.2 °F 61% 29.92 in 10.0 mi NNE 21.9 mph 27.6 mph N/A   Overcast
6:53 AM 42.1 °F 32.8 °F 30.9 °F 65% 29.92 in 10.0 mi NNE 21.9 mph 29.9 mph N/A   Overcast
7:53 AM 42.1 °F 33.3 °F 30.9 °F 65% 29.92 in 10.0 mi NNE 19.6 mph 29.9 mph N/A   Overcast
8:53 AM 41.0 °F 31.6 °F 32.0 °F 70% 29.90 in 10.0 mi NNE 20.7 mph 31.1 mph 0.00 in Rain Light Rain
9:46 AM 37.4 °F 26.6 °F 33.8 °F 87% 29.86 in 2.0 mi NNE 21.9 mph 34.5 mph 0.16 in Rain Heavy Rain
9:53 AM 37.9 °F 26.8 °F 34.0 °F 86% 29.85 in 2.0 mi NNE 24.2 mph 31.1 mph 0.19 in Rain Heavy Rain
10:53 AM 39.9 °F 29.7 °F 36.0 °F 86% 29.82 in 2.0 mi NNE 23.0 mph 34.5 mph 0.11 in Rain Rain
11:53 AM 41.0 °F 30.0 °F 35.1 °F 79% 29.78 in 2.0 mi NNE 28.8 mph 41.4 mph 0.02 in   Overcast
12:33 PM 39.2 °F 27.8 °F 35.6 °F 87% 29.75 in 10.0 mi NNE 27.6 mph 36.8 mph 0.01 in Rain Light Rain
12:53 PM 39.9 °F 28.6 °F 35.1 °F 83% 29.74 in 10.0 mi NNE 28.8 mph 35.7 mph 0.01 in Rain Light Rain
1:45 PM 39.2 °F 28.0 °F 35.6 °F 87% 29.72 in 10.0 mi NNE 26.5 mph 39.1 mph 0.00 in Rain Light Rain
1:53 PM 39.9 °F 29.0 °F 35.1 °F 83% 29.75 in 9.0 mi NNE 26.5 mph 39.1 mph 0.00 in Rain Light Rain
2:53 PM 37.9 °F 26.8 °F 34.0 °F 86% 29.73 in 2.5 mi NNE 24.2 mph 41.4 mph 0.07 in Rain Rain
3:25 PM 35.6 °F 23.7 °F 33.8 °F 93% 29.72 in 3.0 mi North 24.2 mph 35.7 mph 0.09 in Rain Rain
3:53 PM 36.0 °F 24.7 °F 33.1 °F 89% 29.70 in 6.0 mi North 21.9 mph 38.0 mph 0.12 in Snow Light Snow
4:38 PM 35.6 °F 24.0 °F 33.8 °F 93% 29.68 in 6.0 mi North 23.0 mph 40.3 mph 0.05 in Snow Light Snow
4:53 PM 36.0 °F 23.0 °F 33.1 °F 89% 29.70 in 8.0 mi North 29.9 mph 43.7 mph 0.05 in Snow Light Snow
5:53 PM 36.0 °F 23.7 °F 32.0 °F 86% 29.71 in 4.0 mi North 26.5 mph 41.4 mph 0.02 in Snow Light Snow
6:53 PM 36.0 °F 23.0 °F 32.0 °F 86% 29.69 in 5.0 mi North 29.9 mph 38.0 mph 0.01 in Snow Light Snow
7:13 PM 35.6 °F 23.4 °F 30.2 °F 81% 29.69 in 6.0 mi North 25.3 mph 42.6 mph 0.01 in Snow Light Snow
7:21 PM 35.6 °F 23.0 °F 30.2 °F 81% 29.68 in 7.0 mi North 27.6 mph 38.0 mph 0.01 in Snow Light Snow
7:44 PM 35.6 °F 22.7 °F 30.2 °F 81% 29.68 in 10.0 mi North 28.8 mph 44.9 mph 0.01 in   Overcast
7:53 PM 36.0 °F 23.5 °F 30.9 °F 82% 29.69 in 10.0 mi NNE 27.6 mph 41.4 mph 0.01 in   Overcast
8:53 PM 36.0 °F 23.7 °F 30.9 °F 82% 29.67 in 10.0 mi North 26.5 mph 41.4 mph 0.00 in   Overcast
9:53 PM 36.0 °F 23.0 °F 28.9 °F 76% 29.66 in 10.0 mi North 29.9 mph 46.0 mph 0.00 in Rain Light Rain
10:53 PM 35.1 °F 23.0 °F 30.0 °F 82% 29.66 in 8.0 mi North 24.2 mph 40.3 mph 0.02 in Rain Light Rain
11:38 PM 35.6 °F 24.0 °F 30.2 °F 81% 29.67 in 5.0 mi North 23.0 mph 35.7 mph 0.03 in Rain Rain
11:53 PM 35.1 °F 24.8 °F 30.0 °F 82% 29.67 in 5.0 mi North 17.3 mph 35.7 mph 0.05 in Rain Rain